SCP
0 0 0 0 0 0 0 0 0 0 0 0 0 0 0 -0 -0 0 -0 0 0 -0 -0 0 0 -0 0 0 -0 -0 -0 -0 -0 0 -0 -0 -0 0 0 0 0 0 0
0 0 0 0 0 0 0 0 0 0 0 0 0 0 0 0 -0 0 -0 0 0 -0 -0 -0 -0 0 0 -0 -0 0 0 0 0 -0 -0 -0 0 0 -0 0 0 0 -0
0 0 0 0 0 0 0 0 0 0 0 0 0 0 0 -0 -0 0 -0 0 0 -0 0 -0 -0 -0 -0 -0 0 -0 -0 0 -0 -0 -0 -0 -0 -0 -0 -0 -0 -0 -0
1 1 0 0 0 0 0 0 0 0 0 0 0 0 0 0 0 -0 0 -0 -0 0 0 0 -0 0 -0 0 0 0 0 0 0 -0 -0 -0 -0 -0 0 -0 0 0 0
1 1 1 1 0 1 1 1 0 1 1 0 0 0 0 0 0 0 0 0 0 -0 -0 0 0 0 0 0 0 0 0 0 0 0 -0 -0 -0 0 0 0 -0 0 0
0 0 1 2 2 2 1 1 1 1 1 1 1 1 1 0 0 0 0 0 0 0 -0 -0 -0 0 0 0 0 -0 -0 0 0 0 0 0 -0 0 0 0 0 0 -0
0 0 0 0 0 0 2 2 2 1 1 2 1 1 1 1 0 0 0 0 1 1 0 0 -0 0 0 0 0 0 0 0 0 0 0 0 -0 0 1 1 0 0 0
0 0 0 0 0 0 0 2 2 2 2 2 2 2 2 1 1 0 0 1 1 1 1 1 1 0 0 1 1 0 0 0 0 0 0 0 0 0 0 0 1 0 0
0 0 0 0 0 0 0 0 1 2 2 2 2 2 2 2 1 0 0 1 1 1 1 1 1 1 1 1 1 1 1 1 0 0 0 0 0 0 0 0 0 0 0
0 0 0 0 0 0 0 0 0 1 2 2 1 1 2 2 1 1 0 1 1 1 1 1 1 1 1 1 2 2 1 1 1 0 1 0 0 0 0 0 0 0 0
0 0 0 0 0 0 0 0 0 0 0 2 2 2 2 1 1 1 0 2 1 1 1 1 1 0 0 0 0 2 1 2 1 1 0 0 0 1 1 1 1 1 0
0 0 0 0 0 0 0 0 0 0 0 0 2 1 1 2 1 1 0 0 1 1 1 1 1 1 0 0 0 0 0 1 1 0 0 0 0 0 0 1 1 2 1
0 0 0 0 0 0 0 0 0 0 0 0 0 1 1 1 2 1 0 0 0 0 1 1 0 0 0 0 0 0 0 0 1 1 0 0 1 0 1 1 1 3 2
0 0 0 0 0 0 0 0 0 0 0 0 0 0 0 0 2 4 3 0 0 0 0 0 0 0 0 0 0 0 0 1 1 1 1 1 1 1 0 1 0 0 1
0 0 0 0 0 0 0 0 0 0 0 0 0 0 0 0 0 0 0 0 0 0 0 0 1 1 1 2 2 2 3 1 1 1 1 1 1 1 1 1 1 0 1
0 0 0 0 0 0 0 0 -0 -0 -0 -0 -0 0 0 0 0 0 0 0 0 0 0 0 1 2 1 1 2 2 2 2 2 2 1 1 1 1 1 1 1 1 1
0 0 0 0 0 0 0 0 0 0 -0 -0 -0 -0 -0 0 0 0 0 0 0 0 0 0 1 2 2 2 1 2 2 3 3 2 1 1 1 1 1 1 1 1 1
0 0 0 0 0 0 0 0 0 0 0 0 -0 -0 -0 0 0 0 0 0 0 0 0 1 1 2 3 2 1 2 2 4 4 3 3 2 2 2 2 1 1 1 1
0 0 0 0 0 0 0 0 0 0 0 0 0 0 -0 -0 -0 -0 0 0 0 0 0 0 1 2 2 1 2 2 2 3 3 4 3 3 2 2 2 2 1 1 1
0 0 0 0 0 0 0 0 0 0 0 0 0 0 0 0 0 0 0 0 0 0 0 0 1 1 1 2 2 2 2 2 2 2 2 3 2 2 2 2 2 1 2
0 0 0 0 0 0 0 0 0 0 0 0 0 0 0 0 0 0 0 0 0 0 0 0 0 2 2 3 3 3 2 2 2 2 3 3 3 3 2 2 2 2 1
0 0 0 0 0 0 0 0 0 0 0 0 0 0 -0 0 0 0 0 0 0 0 0 0 0 0 0 0 0 0 0 0 0 0 2 2 2 2 2 2 2 1 1
0 0 0 0 0 0 0 0 0 0 0 0 0 0 0 0 0 0 0 0 0 0 0 0 0 0 0 0 0 0 0 0 0 0 0 0 0 0 0 0 1 1 1
-0 0 0 0 0 0 0 0 0 0 0 0 0 0 0 0 0 0 0 0 0 0 0 0 0 0 0 0 0 0 0 0 0 0 0 0 0 0 0 0 0 0 0
-0 0 0 0 0 0 0 0 0 0 0 0 0 0 0 0 0 0 0 0 0 0 0 0 0 0 0 0 0 0 0 0 0 0 0 0 0 0 0 0 0 0 0
-0 -0 -0 0 0 0 0 0 0 0 0 0 0 0 0 0 0 0 0 0 0 0 0 0 0 0 0 0 0 0 0 0 0 0 0 0 0 0 0 0 0 0 0
Wind_Speed_500mb
36 36 38 38 38 35 35 33 31 36 30 20 15 30 21 20 20 22 26 13 20 22 27 21 24 33 22 20 21 22 22 21 27 27 27 27 32 43 38 39 34 31 33
38 35 36 37 36 36 36 35 33 31 32 33 28 31 28 27 27 26 24 23 25 22 23 25 27 25 30 33 30 25 24 26 25 34 33 33 32 34 40 44 32 29 29
44 39 36 36 37 40 40 36 36 34 31 32 33 36 31 31 32 32 31 28 28 26 25 25 26 29 34 30 28 27 26 25 23 25 30 29 30 30 31 32 35 33 29
22 37 40 36 38 38 39 40 37 38 36 35 37 40 36 33 33 32 34 36 36 33 32 31 31 31 34 32 31 32 32 32 27 28 29 28 27 27 28 28 30 31 32
25 16 14 27 34 36 41 39 48 44 43 43 41 42 47 43 40 41 40 38 44 41 36 35 36 38 38 39 31 32 30 32 25 29 30 29 27 25 23 28 34 35 35
22 23 21 21 19 28 31 36 43 51 58 53 50 50 49 46 47 51 48 41 45 45 40 42 39 43 47 43 39 36 42 40 43 35 33 33 39 38 31 32 33 35 39
11 19 35 39 36 37 37 38 39 40 44 56 62 57 57 60 53 56 60 59 51 46 47 49 39 42 49 48 46 48 47 49 51 49 51 47 45 41 42 44 37 37 42
17 12 26 26 31 36 42 41 43 48 49 47 54 62 63 63 62 60 61 67 68 68 62 52 55 58 55 45 52 50 54 54 55 56 58 57 54 49 43 40 43 44 43
32 29 22 18 31 37 37 36 36 40 47 56 55 54 60 65 65 66 66 68 68 74 76 77 76 65 65 63 61 56 58 59 50 54 56 57 56 53 51 51 48 43 50
27 27 26 30 27 26 29 36 45 41 42 50 51 51 57 60 62 65 70 67 62 68 69 76 80 86 88 80 77 75 79 81 63 58 58 57 59 62 60 59 63 56 51
26 27 28 29 32 31 28 30 40 46 48 40 48 54 57 57 59 62 67 66 64 65 66 66 66 67 70 76 84 87 91 81 68 64 67 64 60 58 58 55 53 52 55
31 31 30 30 33 28 36 32 30 36 43 51 46 50 54 61 60 61 69 70 69 69 69 67 66 66 69 71 70 72 71 69 74 76 76 71 65 61 56 56 61 62 62
37 36 37 36 34 37 38 35 27 34 32 32 32 39 42 48 53 54 57 60 64 67 74 77 72 70 73 70 69 71 68 66 73 78 81 85 74 68 63 61 59 57 56
42 43 42 39 39 40 36 32 29 29 30 34 35 30 38 34 35 45 52 53 50 55 59 64 73 83 82 81 73 73 72 78 80 81 76 75 73 64 63 61 60 57 58
45 45 44 43 42 42 41 40 37 40 39 44 44 48 52 53 43 34 39 43 50 38 44 42 48 54 70 86 81 77 68 65 59 69 71 65 63 61 62 60 60 58 57
39 43 44 44 43 46 47 46 47 57 55 58 59 58 60 64 60 53 57 54 58 65 61 64 57 48 57 64 62 64 65 67 63 60 56 59 66 63 62 60 59 59 59
35 40 43 44 46 48 47 49 52 48 55 57 58 60 57 67 66 64 54 49 50 60 66 59 70 73 64 60 63 67 65 61 57 55 60 61 59 57 57 62 61 57 60
39 45 51 46 48 52 52 54 53 52 53 51 51 53 64 59 61 66 64 58 53 54 69 77 77 78 75 64 72 72 67 58 64 72 71 66 64 63 58 58 58 59 60
43 40 41 47 47 54 58 55 55 55 54 56 53 48 46 49 61 67 64 53 54 58 62 69 77 72 76 81 81 72 71 71 66 65 65 66 63 65 59 55 55 58 58
49 50 50 47 53 54 55 55 57 58 56 55 52 49 43 40 49 59 57 54 48 54 59 63 63 66 82 80 70 70 67 76 70 64 63 62 61 61 62 67 70 69 62
45 46 50 55 55 54 56 55 54 56 57 56 55 46 49 58 55 62 69 65 58 55 56 56 67 68 71 65 59 64 71 74 69 66 62 62 60 62 62 61 61 60 61
47 51 54 54 56 58 65 61 59 61 54 56 56 51 54 59 53 61 69 71 66 61 55 57 60 76 82 71 67 72 67 65 63 61 59 59 55 54 59 64 60 60 61
41 42 45 50 52 58 63 64 68 67 58 55 55 53 47 47 51 60 65 71 68 66 62 55 61 58 68 72 70 64 58 58 63 69 69 62 56 55 61 68 63 57 56
41 40 42 46 48 55 62 63 65 73 74 67 60 57 62 69 75 70 66 66 68 66 62 53 54 59 60 67 70 70 65 60 74 69 64 61 55 52 58 63 57 48 50
43 42 43 42 44 47 51 57 63 70 73 75 76 76 73 73 73 69 67 62 62 62 58 53 51 54 55 61 65 67 65 71 77 71 56 49 44 41 44 42 43 36 39
44 50 46 46 45 46 47 49 54 56 60 66 69 71 70 72 71 66 63 57 53 51 47 45 42 43 41 37 41 46 53 52 49 47 48 45 42 41 40 36 33 33 38
Wind_Direction_500mb
212 214 216 218 219 220 219 221 224 221 220 250 227 221 223 227 231 230 207 227 244 223 212 226 243 231 237 242 248 251 258 264 270 275 278 289 290 301 304 301 308 316 322
216 216 219 220 219 223 225 224 226 229 226 221 236 235 224 231 232 236 238 226 233 236 233 237 238 245 254 238 242 250 255 260 269 277 279 287 294 296 302 313 311 302 305
216 218 222 222 221 222 226 226 225 228 231 226 224 239 229 230 235 241 238 236 231 239 239 244 247 245 244 239 244 247 254 268 269 272 285 287 288 287 294 303 308 310 322
206 216 218 226 223 228 231 225 228 230 231 233 225 222 238 238 238 241 241 240 237 238 245 246 248 251 249 253 249 240 248 252 261 271 277 282 289 291 289 297 303 304 307
188 216 174 228 237 231 228 239 228 228 238 238 237 231 228 231 236 244 236 242 249 241 236 246 250 248 249 244 242 253 246 258 259 265 270 276 280 290 291 296 298 304 302
237 224 226 218 214 228 246 244 239 232 224 234 241 239 235 233 239 236 239 241 238 246 242 245 244 250 256 254 249 240 239 242 250 258 265 269 272 285 288 290 290 298 302
232 233 240 243 238 230 229 238 247 250 243 230 236 238 239 244 235 235 239 238 238 249 248 253 243 249 257 265 264 257 255 254 258 263 264 266 271 274 278 282 286 281 287
10 277 252 243 240 238 242 240 249 247 246 246 241 239 242 244 244 242 240 243 245 242 239 248 251 248 241 255 262 256 263 263 260 260 266 277 279 281 281 284 288 293 296
4 359 339 321 266 258 253 247 243 248 248 246 244 242 246 249 244 245 246 245 246 249 252 250 242 248 256 253 245 250 256 255 263 274 279 285 290 288 283 277 268 274 280
355 351 349 339 329 303 271 257 253 250 257 252 244 247 247 250 252 253 246 243 245 249 256 259 257 254 251 250 256 257 256 256 257 258 262 272 274 277 280 275 272 264 269
334 333 332 328 331 325 306 281 261 257 259 262 257 251 245 246 253 256 256 251 244 246 251 251 257 264 261 259 258 255 258 263 260 266 269 269 266 269 275 278 276 273 274
317 319 319 321 319 312 317 319 299 279 263 259 264 267 260 255 251 250 255 257 257 248 244 249 256 260 261 264 264 264 266 268 263 258 259 260 261 262 265 267 269 273 274
304 305 305 307 309 309 307 309 315 313 298 279 277 272 278 277 260 254 255 260 268 264 260 255 249 250 253 257 258 260 262 262 259 256 254 256 255 257 260 261 262 269 268
296 296 298 298 298 305 300 297 296 299 297 299 280 278 261 268 268 264 260 262 260 263 269 268 260 254 249 248 254 260 260 259 258 258 256 258 258 255 256 259 259 257 258
292 290 289 289 290 289 287 291 286 281 280 281 290 293 285 266 264 265 266 263 257 254 263 269 264 262 257 255 253 251 255 264 263 257 247 250 251 252 254 255 255 255 256
287 285 283 280 279 282 283 284 286 295 286 283 284 284 286 283 278 272 270 279 275 275 267 268 263 252 253 253 253 253 251 251 252 253 260 256 250 251 253 255 254 253 254
293 286 277 276 278 279 279 279 282 280 290 295 284 281 279 282 284 279 274 272 277 268 263 277 272 263 260 255 251 252 250 248 243 250 247 249 251 250 251 253 253 253 253
298 277 273 275 276 277 279 278 275 276 280 278 286 286 283 280 281 279 272 272 276 280 267 272 281 264 258 264 261 249 247 251 248 249 242 243 245 250 251 250 252 253 254
306 293 285 281 277 275 273 275 273 275 276 278 282 284 292 296 277 279 279 279 276 278 284 281 278 265 250 252 256 256 254 252 248 249 246 248 246 242 243 245 251 254 255
300 296 285 277 278 275 275 271 270 271 273 275 277 279 282 282 283 279 281 286 283 279 271 274 263 260 254 262 258 256 255 254 255 247 246 250 250 250 255 256 256 252 250
299 292 285 277 274 270 275 274 272 271 269 270 271 273 274 273 280 284 281 283 279 279 282 270 247 247 251 248 254 258 256 258 256 258 255 255 256 258 261 265 266 268 264
300 292 287 283 282 279 272 269 276 274 270 270 272 274 274 276 276 278 279 280 280 277 276 274 264 243 245 245 247 257 260 260 264 262 256 257 260 266 269 272 273 278 277
310 301 293 286 279 275 275 276 270 273 274 269 268 268 268 270 269 272 276 277 277 276 273 268 264 258 245 241 240 248 256 268 264 261 258 252 254 266 271 262 263 273 278
325 314 306 299 292 287 284 280 273 267 263 266 271 268 268 270 274 274 271 270 272 273 272 266 263 259 256 249 246 247 251 258 262 259 254 255 257 259 259 256 258 262 271
341 333 327 317 308 298 292 286 280 272 267 266 265 268 271 273 272 273 270 266 266 265 264 262 259 259 251 251 249 245 247 253 258 255 253 256 256 249 246 253 256 255 280
343 349 342 336 325 315 302 294 288 282 278 273 269 269 268 267 267 269 266 262 259 256 254 253 249 248 246 242 244 244 250 252 248 245 249 253 251 251 250 253 264 269 262
Wind_Speed_850mb
36 36 38 38 38 35 35 33 31 36 30 20 15 30 21 20 20 22 26 13 20 22 27 21 24 33 22 20 21 22 22 21 27 27 27 27 32 43 38 39 34 31 33
38 35 36 37 36 36 36 35 33 31 32 33 28 31 28 27 27 26 24 23 25 22 23 25 27 25 30 33 30 25 24 26 25 34 33 33 32 34 40 44 32 29 29
44 39 36 36 37 40 40 36 36 34 31 32 33 36 31 31 32 32 31 28 28 26 25 25 26 29 34 30 28 27 26 25 23 25 30 29 30 30 31 32 35 33 29
22 37 40 36 38 38 39 40 37 38 36 35 37 40 36 33 33 32 34 36 36 33 32 31 31 31 34 32 31 32 32 32 27 28 29 28 27 27 28 28 30 31 32
25 16 14 27 34 36 41 39 48 44 43 43 41 42 47 43 40 41 40 38 44 41 36 35 36 38 38 39 31 32 30 32 25 29 30 29 27 25 23 28 34 35 35
22 23 21 21 19 28 31 36 43 51 58 53 50 50 49 46 47 51 48 41 45 45 40 42 39 43 47 43 39 36 42 40 43 35 33 33 39 38 31 32 33 35 39
11 19 35 39 36 37 37 38 39 40 44 56 62 57 57 60 53 56 60 59 51 46 47 49 39 42 49 48 46 48 47 49 51 49 51 47 45 41 42 44 37 37 42
17 12 26 26 31 36 42 41 43 48 49 47 54 62 63 63 62 60 61 67 68 68 62 52 55 58 55 45 52 50 54 54 55 56 58 57 54 49 43 40 43 44 43
32 29 22 18 31 37 37 36 36 40 47 56 55 54 60 65 65 66 66 68 68 74 76 77 76 65 65 63 61 56 58 59 50 54 56 57 56 53 51 51 48 43 50
27 27 26 30 27 26 29 36 45 41 42 50 51 51 57 60 62 65 70 67 62 68 69 76 80 86 88 80 77 75 79 81 63 58 58 57 59 62 60 59 63 56 51
26 27 28 29 32 31 28 30 40 46 48 40 48 54 57 57 59 62 67 66 64 65 66 66 66 67 70 76 84 87 91 81 68 64 67 64 60 58 58 55 53 52 55
31 31 30 30 33 28 36 32 30 36 43 51 46 50 54 61 60 61 69 70 69 69 69 67 66 66 69 71 70 72 71 69 74 76 76 71 65 61 56 56 61 62 62
37 36 37 36 34 37 38 35 27 34 32 32 32 39 42 48 53 54 57 60 64 67 74 77 72 70 73 70 69 71 68 66 73 78 81 85 74 68 63 61 59 57 56
42 43 42 39 39 40 36 32 29 29 30 34 35 30 38 34 35 45 52 53 50 55 59 64 73 83 82 81 73 73 72 78 80 81 76 75 73 64 63 61 60 57 58
45 45 44 43 42 42 41 40 37 40 39 44 44 48 52 53 43 34 39 43 50 38 44 42 48 54 70 86 81 77 68 65 59 69 71 65 63 61 62 60 60 58 57
39 43 44 44 43 46 47 46 47 57 55 58 59 58 60 64 60 53 57 54 58 65 61 64 57 48 57 64 62 64 65 67 63 60 56 59 66 63 62 60 59 59 59
35 40 43 44 46 48 47 49 52 48 55 57 58 60 57 67 66 64 54 49 50 60 66 59 70 73 64 60 63 67 65 61 57 55 60 61 59 57 57 62 61 57 60
39 45 51 46 48 52 52 54 53 52 53 51 51 53 64 59 61 66 64 58 53 54 69 77 77 78 75 64 72 72 67 58 64 72 71 66 64 63 58 58 58 59 60
43 40 41 47 47 54 58 55 55 55 54 56 53 48 46 49 61 67 64 53 54 58 62 69 77 72 76 81 81 72 71 71 66 65 65 66 63 65 59 55 55 58 58
49 50 50 47 53 54 55 55 57 58 56 55 52 49 43 40 49 59 57 54 48 54 59 63 63 66 82 80 70 70 67 76 70 64 63 62 61 61 62 67 70 69 62
45 46 50 55 55 54 56 55 54 56 57 56 55 46 49 58 55 62 69 65 58 55 56 56 67 68 71 65 59 64 71 74 69 66 62 62 60 62 62 61 61 60 61
47 51 54 54 56 58 65 61 59 61 54 56 56 51 54 59 53 61 69 71 66 61 55 57 60 76 82 71 67 72 67 65 63 61 59 59 55 54 59 64 60 60 61
41 42 45 50 52 58 63 64 68 67 58 55 55 53 47 47 51 60 65 71 68 66 62 55 61 58 68 72 70 64 58 58 63 69 69 62 56 55 61 68 63 57 56
41 40 42 46 48 55 62 63 65 73 74 67 60 57 62 69 75 70 66 66 68 66 62 53 54 59 60 67 70 70 65 60 74 69 64 61 55 52 58 63 57 48 50
43 42 43 42 44 47 51 57 63 70 73 75 76 76 73 73 73 69 67 62 62 62 58 53 51 54 55 61 65 67 65 71 77 71 56 49 44 41 44 42 43 36 39
44 50 46 46 45 46 47 49 54 56 60 66 69 71 70 72 71 66 63 57 53 51 47 45 42 43 41 37 41 46 53 52 49 47 48 45 42 41 40 36 33 33 38
Wind_Direction_850mb
212 214 216 218 219 220 219 221 224 221 220 250 227 221 223 227 231 230 207 227 244 223 212 226 243 231 237 242 248 251 258 264 270 275 278 289 290 301 304 301 308 316 322
216 216 219 220 219 223 225 224 226 229 226 221 236 235 224 231 232 236 238 226 233 236 233 237 238 245 254 238 242 250 255 260 269 277 279 287 294 296 302 313 311 302 305
216 218 222 222 221 222 226 226 225 228 231 226 224 239 229 230 235 241 238 236 231 239 239 244 247 245 244 239 244 247 254 268 269 272 285 287 288 287 294 303 308 310 322
206 216 218 226 223 228 231 225 228 230 231 233 225 222 238 238 238 241 241 240 237 238 245 246 248 251 249 253 249 240 248 252 261 271 277 282 289 291 289 297 303 304 307
188 216 174 228 237 231 228 239 228 228 238 238 237 231 228 231 236 244 236 242 249 241 236 246 250 248 249 244 242 253 246 258 259 265 270 276 280 290 291 296 298 304 302
237 224 226 218 214 228 246 244 239 232 224 234 241 239 235 233 239 236 239 241 238 246 242 245 244 250 256 254 249 240 239 242 250 258 265 269 272 285 288 290 290 298 302
232 233 240 243 238 230 229 238 247 250 243 230 236 238 239 244 235 235 239 238 238 249 248 253 243 249 257 265 264 257 255 254 258 263 264 266 271 274 278 282 286 281 287
10 277 252 243 240 238 242 240 249 247 246 246 241 239 242 244 244 242 240 243 245 242 239 248 251 248 241 255 262 256 263 263 260 260 266 277 279 281 281 284 288 293 296
4 359 339 321 266 258 253 247 243 248 248 246 244 242 246 249 244 245 246 245 246 249 252 250 242 248 256 253 245 250 256 255 263 274 279 285 290 288 283 277 268 274 280
355 351 349 339 329 303 271 257 253 250 257 252 244 247 247 250 252 253 246 243 245 249 256 259 257 254 251 250 256 257 256 256 257 258 262 272 274 277 280 275 272 264 269
334 333 332 328 331 325 306 281 261 257 259 262 257 251 245 246 253 256 256 251 244 246 251 251 257 264 261 259 258 255 258 263 260 266 269 269 266 269 275 278 276 273 274
317 319 319 321 319 312 317 319 299 279 263 259 264 267 260 255 251 250 255 257 257 248 244 249 256 260 261 264 264 264 266 268 263 258 259 260 261 262 265 267 269 273 274
304 305 305 307 309 309 307 309 315 313 298 279 277 272 278 277 260 254 255 260 268 264 260 255 249 250 253 257 258 260 262 262 259 256 254 256 255 257 260 261 262 269 268
296 296 298 298 298 305 300 297 296 299 297 299 280 278 261 268 268 264 260 262 260 263 269 268 260 254 249 248 254 260 260 259 258 258 256 258 258 255 256 259 259 257 258
292 290 289 289 290 289 287 291 286 281 280 281 290 293 285 266 264 265 266 263 257 254 263 269 264 262 257 255 253 251 255 264 263 257 247 250 251 252 254 255 255 255 256
287 285 283 280 279 282 283 284 286 295 286 283 284 284 286 283 278 272 270 279 275 275 267 268 263 252 253 253 253 253 251 251 252 253 260 256 250 251 253 255 254 253 254
293 286 277 276 278 279 279 279 282 280 290 295 284 281 279 282 284 279 274 272 277 268 263 277 272 263 260 255 251 252 250 248 243 250 247 249 251 250 251 253 253 253 253
298 277 273 275 276 277 279 278 275 276 280 278 286 286 283 280 281 279 272 272 276 280 267 272 281 264 258 264 261 249 247 251 248 249 242 243 245 250 251 250 252 253 254
306 293 285 281 277 275 273 275 273 275 276 278 282 284 292 296 277 279 279 279 276 278 284 281 278 265 250 252 256 256 254 252 248 249 246 248 246 242 243 245 251 254 255
300 296 285 277 278 275 275 271 270 271 273 275 277 279 282 282 283 279 281 286 283 279 271 274 263 260 254 262 258 256 255 254 255 247 246 250 250 250 255 256 256 252 250
299 292 285 277 274 270 275 274 272 271 269 270 271 273 274 273 280 284 281 283 279 279 282 270 247 247 251 248 254 258 256 258 256 258 255 255 256 258 261 265 266 268 264
300 292 287 283 282 279 272 269 276 274 270 270 272 274 274 276 276 278 279 280 280 277 276 274 264 243 245 245 247 257 260 260 264 262 256 257 260 266 269 272 273 278 277
310 301 293 286 279 275 275 276 270 273 274 269 268 268 268 270 269 272 276 277 277 276 273 268 264 258 245 241 240 248 256 268 264 261 258 252 254 266 271 262 263 273 278
325 314 306 299 292 287 284 280 273 267 263 266 271 268 268 270 274 274 271 270 272 273 272 266 263 259 256 249 246 247 251 258 262 259 254 255 257 259 259 256 258 262 271
341 333 327 317 308 298 292 286 280 272 267 266 265 268 271 273 272 273 270 266 266 265 264 262 259 259 251 251 249 245 247 253 258 255 253 256 256 249 246 253 256 255 280
343 349 342 336 325 315 302 294 288 282 278 273 269 269 268 267 267 269 266 262 259 256 254 253 249 248 246 242 244 244 250 252 248 245 249 253 251 251 250 253 264 269 262